Content
SEND FEEDBACK

Daily
Averages
Monthly
Summary
United States of America

BARRINGTON, ILLINOIS


Home > North America > United States > Illinois
Elevation: 810 feet     Latitude: 42 10N     Longitude: 088 09W

WEATHER
 
SELECT A DAY
Number of Records: 199,595;   Date Range: 1/1/95 - 10/19/14
 
SHARE

PRINT THIS DATA

[ ← Previous Day ]
WEATHER ALMANAC - JUNE 29, 2013
[ Next Day → ]
[ °C ]   °F
We're sorry. There is no daily almanac available for Barrington, Illinois on June 29, 2013.
WEATHER BY HOUR - JUNE 29, 2013
[ °C ]   °F
Local TimeTemperatureDewpointHumidityBarometerVisibilityWind DirectionWind SpeedGust SpeedPrecipitationEventsConditions
1:51 AM66.0 °F62.1 °F87 %29.58 in10.0 miNE (40°)8.1 mphMostly Cloudy
2:51 AM66.0 °F62.1 °F87 %29.59 in10.0 miNorth (360°)4.6 mphOvercast
3:10 AM66.2 °F62.6 °F88 %29.59 in10.0 miNNE (20°)6.9 mphMostly Cloudy
3:51 AM66.0 °F62.1 °F87 %29.59 in10.0 miNorth (10°)8.1 mphOvercast
4:51 AM64.9 °F61.0 °F87 %29.60 in10.0 miNorth (350°)10.4 mphOvercast
5:51 AM66.0 °F62.1 °F87 %29.61 in10.0 miNorth (350°)5.8 mphOvercast
6:48 AM64.4 °F62.6 °F94 %29.62 in10.0 miNorth (360°)10.4 mphOvercast
6:51 AM64.9 °F62.1 °F90 %29.60 in10.0 miNorth (360°)8.1 mphOvercast
7:51 AM64.9 °F62.1 °F90 %29.61 in10.0 miNorth (350°)9.2 mphOvercast
8:51 AM66.0 °F62.1 °F87 %29.61 in10.0 miNorth (10°)11.5 mphOvercast
9:51 AM66.9 °F62.1 °F84 %29.62 in10.0 miNE (40°)8.1 mphOvercast
10:51 AM68.0 °F62.1 °F81 %29.62 in10.0 miNNE (30°)11.5 mphOvercast
11:51 AM68.0 °F62.1 °F81 %29.64 in10.0 miNNE (30°)15.0 mphOvercast
12:40 PM66.2 °F62.6 °F88 %29.65 in2.0 miNNE (20°)16.1 mphOvercast
12:51 PM66.0 °F62.1 °F87 %29.65 in2.0 miNE (40°)13.8 mph20.7 mphOvercast
1:19 PM66.2 °F62.6 °F88 %29.66 in10.0 miNNE (20°)17.3 mphOvercast
1:51 PM64.9 °F61.0 °F87 %29.66 in8.0 miNNE (30°)15.0 mphOvercast
2:30 PM66.2 °F60.8 °F83 %29.67 in10.0 miNNE (30°)13.8 mph18.4 mphOvercast
2:51 PM68.0 °F60.1 °F76 %29.67 in10.0 miNNE (20°)16.1 mphOvercast
3:11 PM69.8 °F59.0 °F68 %29.68 in10.0 miNNE (30°)16.1 mph26.5 mphMostly Cloudy
3:51 PM70.0 °F55.0 °F59 %29.68 in10.0 miNNE (30°)18.4 mph24.2 mphMostly Cloudy
4:51 PM70.0 °F57.0 °F63 %29.68 in10.0 miNNE (20°)17.3 mph24.2 mphMostly Cloudy
5:51 PM68.0 °F57.9 °F70 %29.69 in10.0 miNNE (20°)19.6 mph26.5 mphMostly Cloudy
6:51 PM66.0 °F55.0 °F68 %29.71 in10.0 miNNE (20°)13.8 mph24.2 mphMostly Cloudy
7:51 PM64.9 °F54.0 °F68 %29.73 in10.0 miNNE (20°)15.0 mph24.2 mphMostly Cloudy
8:51 PM64.9 °F55.9 °F73 %29.73 in10.0 miNNE (20°)16.1 mph23.0 mphMostly Cloudy
9:51 PM64.9 °F55.9 °F73 %29.75 in10.0 miNNE (20°)13.8 mphMostly Cloudy
10:51 PM64.9 °F55.9 °F73 %29.76 in10.0 miNNE (20°)11.5 mph24.2 mphOvercast
11:14 PM64.4 °F57.2 °F77 %29.76 in10.0 miNNE (20°)10.4 mphOvercast
11:51 PM64.0 °F57.0 °F78 %29.76 in10.0 miNorth (10°)13.8 mphOvercast
Hourly data recorded from KORD, located miles away from Barrington, Illinois







STORIES FROM OUR PARTNERS